Home > Weather > Berkeley > Past weeks

Flag for USA Weather for the Past 2 Weeks in Berkeley, California, USA

Now
67 °F

Broken clouds.


Feels Like: 67 °F
Forecast: 56 / 65 °F
Wind: 5 mph from North

Location: Metro Oakland International Airport

Current Time: May 4, 2016 at 4:14:57 PM

Latest Report: May 4, 2016 at 2:53 PM


Visibility: 10 mi

Pressure: 29.88 "Hg

Humidity: 55%

Dew Point: 50 °F

Location of BerkeleyLocation

Historic Weather in Berkeley — Graph

°F

Berkeley Temperature Yesterday

Maximum temperature yesterday: 68 °F (at 3:53 PM)
Minimum temperature yesterday: 55 °F (at 12:53 AM)
Average temperature yesterday: 60 °F

High & Low Weather Summary for the Past Weeks

 TemperatureHumidityPressure
High80 °F (Apr 30, 3:53 PM)90% (Apr 27, 10:53 AM)30.21 "Hg (Apr 27, 10:53 AM)
Low49 °F (Apr 20, 5:53 AM)22% (Apr 19, 6:53 PM)29.80 "Hg (May 1, 2:53 AM)
Average61 °F62%29.97 "Hg
* Reported Apr 19 10:53 AM — May 4 10:53 AM, Berkeley, Weather by CustomWeather, © 2016

Note: Actual official high and low records may vary slightly from our data, if they occured in-between our weather recording intervals... More about our weather records

Advertising

Berkeley Weather History for the Previous 24 Hours

Scroll right to see more
 ConditionsComfort  
Time TempWeatherWind HumidityBarometerVisibility
10:53 AM
Wed, May 4
61 °FMostly cloudy.6 mph67%29.90 "Hg10 mi
9:53 AM60 °FMostly cloudy.5 mph69%29.89 "Hg10 mi
8:53 AM59 °FOvercast.5 mph72%29.88 "Hg10 mi
7:53 AM58 °FMostly cloudy.No wind75%29.89 "Hg10 mi
6:53 AM57 °FMostly cloudy.7 mph81%29.89 "Hg10 mi
5:53 AM56 °FPartly cloudy.5 mph81%29.88 "Hg10 mi
4:53 AM56 °FPassing clouds.7 mph81%29.88 "Hg10 mi
3:53 AM57 °FOvercast.13 mph78%29.90 "Hg10 mi
2:53 AM57 °FOvercast.10 mph81%29.90 "Hg10 mi
1:53 AM56 °FMostly cloudy.8 mph81%29.92 "Hg10 mi
12:53 AM56 °FPartly cloudy.13 mph81%29.93 "Hg10 mi
11:53 PM
Tue, May 3
57 °FOvercast.9 mph81%29.93 "Hg10 mi
10:53 PM57 °FPartly cloudy.8 mph81%29.94 "Hg10 mi
9:53 PM58 °FPartly cloudy.9 mph78%29.94 "Hg10 mi
8:53 PM58 °FPartly sunny.10 mph78%29.92 "Hg10 mi
7:53 PM59 °FBroken clouds.9 mph75%29.91 "Hg10 mi
6:53 PM61 °FMore clouds than sun.14 mph67%29.92 "Hg10 mi
5:53 PM63 °FMore clouds than sun.13 mph65%29.92 "Hg10 mi
4:53 PM65 °FMore clouds than sun.15 mph63%29.92 "Hg10 mi
Weather by CustomWeather, © 2016

See weather overviewHow to use our weather pages